sat.trackr.live / text

‹ back to catalog

AMC-3

NORAD 24936 · 1997-050A

PAYLOAD ACTIVE UNKNOWN

§ Identity

Operator
Country
SES
Launch date
1997-09-04
Launch site
AFETR
Launch vehicle
Mass (kg)
RCS (m²)
8.36

Purposes: comms

External: N2YO · Heavens-Above · Gunter

§ Orbital elements

Epoch: 2026-06-22T14:11:33.529920Z

Period
1,453.60 min
Inclination
8.1784°
Eccentricity
0.0004406
Mean motion
0.99064631 rev/d
Perigee alt
36,109.7 km
Apogee alt
36,147.2 km
Semi-major
42,506.6 km
B*
0.0000e+0
RAAN
63.9286°
Arg perigee
30.0620°
Mean anomaly
235.7958°
Rev number
5,248

§ Raw data

AMC-31 24936U 97050A   26173.59136030 -.00000004  00000+0  00000+0 0  99942 24936   8.1784  63.9286 0004406  30.0620 235.7958  0.99064631 52489

JSON: /api/v1/satellites/24936 · /tle

For live sub-satellite position, see the globe view (requires WebGL).

§ Visibility from observer

Set your observer location to see the next 7 days of passes ≥ 10°. The values pass through the URL so the page stays shareable.

No JS? Fill the form by hand. The geolocation button needs JavaScript.